Weather History for Ann Arbor, MI

Change the Weather History Date:

Friday, April 5, 2013

  Actual Average Record
Temperature  
Mean Temperature 42 °F -  
Max Temperature 50 °F 51 °F 75 °F (2005)
Min Temperature 32 °F 31 °F 21 °F (2004)
Degree Days  
Heating Degree Days 22    
Moisture  
Dew Point 20 °F    
Average Humidity 43    
Maximum Humidity 73    
Minimum Humidity 23    
Precipitation  
Precipitation 0.00 in - - ()
Sea Level Pressure  
Sea Level Pressure 30.10 in    
Wind  
Wind Speed 6 mph (NNE)    
Max Wind Speed 14 mph    
Max Gust Speed 23 mph    
Visibility 10 miles    
Events      
Averages and records for this station are not official NWS values.
T = Trace of Precipitation, MM = Missing Value Source: NWS Daily Summary

Daily Weather History Graph

Daily Weather History Graph

Search for Another Location

Airport:

Trip Planner

Search our weather history database for the weather conditions in past years. The results will help you decide how hot, cold, wet, or windy it might be!

Date:

Astronomy

Apr. 05, 2013 Rise Set
Actual Time 7:10 AM EDT 8:05 PM EDT
Civil Twilight 6:41 AM EDT 8:34 PM EDT
Nautical Twilight 6:07 AM EDT 9:08 PM EDT
Astronomical Twilight 5:32 AM EDT 9:43 PM EDT
Moon 4:22 AM EDT (4/5) 3:23 PM EDT (4/5)
Length of Visible Light 13h 52m
Length of Day
12h 55m
Waning Crescent, 24% of the Moon is Illuminated
Apr 5
Waning Crescent
Apr 10
New
Apr 18
First Quarter
Apr 25
Full
May 2
Last Quarter

Hourly Weather History & Observations

Time (EDT) Temp. Windchill Dew Point Humidity Pressure Visibility Wind Dir Wind Speed Gust Speed Precip Events Conditions
12:53 AM 43.0 °F - 19.9 °F 40% 29.95 in 10.0 mi Calm Calm - N/A   Overcast
1:53 AM 39.0 °F - 26.1 °F 60% 29.95 in 10.0 mi Calm Calm - N/A   Overcast
2:53 AM 41.0 °F - 26.1 °F 55% 29.95 in 10.0 mi Calm Calm - N/A   Overcast
3:53 AM 42.1 °F 39.2 °F 18.0 °F 38% 29.95 in 10.0 mi NNW 4.6 mph - N/A   Mostly Cloudy
4:53 AM 41.0 °F 35.2 °F 23.0 °F 49% 29.98 in 10.0 mi NNE 9.2 mph - N/A   Partly Cloudy
5:53 AM 39.0 °F 32.8 °F 28.0 °F 65% 30.01 in 10.0 mi NNE 9.2 mph - N/A   Partly Cloudy
6:53 AM 37.0 °F 30.4 °F 28.9 °F 73% 30.05 in 10.0 mi NNE 9.2 mph - N/A   Clear
7:53 AM 36.0 °F 27.1 °F 25.0 °F 64% 30.10 in 10.0 mi NNE 13.8 mph - N/A   Clear
8:53 AM 37.9 °F 29.6 °F 23.0 °F 55% 30.12 in 10.0 mi NNE 13.8 mph 18.4 mph N/A   Clear
9:53 AM 41.0 °F 35.2 °F 19.9 °F 43% 30.13 in 10.0 mi North 9.2 mph - N/A   Clear
10:53 AM 44.1 °F 37.7 °F 18.0 °F 35% 30.14 in 10.0 mi NNW 12.7 mph - N/A   Clear
11:53 AM 45.0 °F 39.3 °F 17.1 °F 33% 30.14 in 10.0 mi North 11.5 mph 23.0 mph N/A   Clear
12:53 PM 46.0 °F 43.1 °F 15.1 °F 29% 30.14 in 10.0 mi Variable 5.8 mph - N/A   Clear
1:53 PM 48.0 °F - 14.0 °F 26% 30.13 in 10.0 mi NNW 11.5 mph 19.6 mph N/A   Clear
2:53 PM 48.9 °F - 15.1 °F 26% 30.13 in 10.0 mi North 10.4 mph 19.6 mph N/A   Clear
3:53 PM 50.0 °F - 12.9 °F 23% 30.12 in 10.0 mi North 11.5 mph - N/A   Clear
4:53 PM 48.9 °F - 14.0 °F 25% 30.11 in 10.0 mi North 5.8 mph 18.4 mph N/A   Clear
5:53 PM 48.9 °F - 14.0 °F 25% 30.13 in 10.0 mi NNW 5.8 mph - N/A   Clear
6:53 PM 46.9 °F - 15.1 °F 28% 30.14 in 10.0 mi NNE 8.1 mph - N/A   Clear
7:53 PM 44.1 °F 40.8 °F 15.1 °F 31% 30.16 in 10.0 mi NE 5.8 mph - N/A   Clear
8:53 PM 41.0 °F 39.0 °F 15.1 °F 35% 30.18 in 10.0 mi NNE 3.5 mph - N/A   Clear
9:53 PM 37.0 °F 31.6 °F 23.0 °F 57% 30.21 in 10.0 mi ESE 6.9 mph - N/A   Clear
10:53 PM 35.1 °F 30.1 °F 23.0 °F 61% 30.22 in 10.0 mi ESE 5.8 mph - N/A   Clear
11:53 PM 32.0 °F 26.4 °F 21.9 °F 66% 30.22 in 10.0 mi ESE 5.8 mph - N/A   Clear